Regional Weather Roundup
Issued by NWS Newport/Morehead, NC

Current Version | Previous Version | Text Only | Print | Product List | Glossary On
Versions: 1 2 3 4 5 6 7 8 9 10 11 12 13 14 15 16 17 18 19 20 21 22 23 24 25 26 27 28 29 30 31 32 33 34 35 36 37 38 39 40 41 42 43 44 45 46 47 48 49 50
000 ASUS42 KMHX 170925 RWRMHX WEATHER ROUNDUP FOR EASTERN NORTH CAROLINA NATIONAL WEATHER SERVICE NEWPORT/MOREHEAD CITY NC 400 AM EST TUE JAN 17 2017 NOTE: "FAIR" INDICATES FEW OR NO CLOUDS BELOW 12,000 FEET WITH NO SIGNIFICANT WEATHER AND/OR OBSTRUCTIONS TO VISIBILITY NCZ015>017-031-032-045>047-102-103-171000- NORTH COAST CITY SKY/WX TMP DP RH WIND PRES REMARKS EDENTON CLOUDY 46 43 90 CALM 30.28F ELIZABETH CITY CLOUDY 43 40 89 N5 30.28F KITTY HAWK NOT AVBL MANTEO CLOUDY 42 42 100 CALM 30.28F $$ NCZ045>047-081-094-103-104-171000- CENTRAL COAST CITY SKY/WX TMP DP RH WIND PRES REMARKS FRISCO CLOUDY 48 43 82 N5 30.27F $$ NCZ095-097-098-100-101-171000- SOUTHERN COAST CITY SKY/WX TMP DP RH WIND PRES REMARKS BEAUFORT MOCLDY 48 43 82 NE5 30.26F CEDAR ISLAND NOT AVBL JACKSONVILLE CLOUDY 48 46 93 NE3 30.25F PINEY ISLAND CLOUDY N/A N/A N/A NE3 30.26F WILMINGTON MOCLDY 48 47 96 CALM 30.25F $$ NCZ011>013-027>030-043-044-078>080-089-090>093-098-171000- COASTAL PLAIN CITY SKY/WX TMP DP RH WIND PRES REMARKS AHOSKIE N/A 43 40 90 CALM 30.27F CLINTON PTCLDY 48 46 93 CALM 30.27F ELIZABETHTOWN MOCLDY 49 48 97 CALM 30.26F GOLDSBORO CLOUDY 48 47 99 CALM 30.25S GREENVILLE CLOUDY 46 43 87 CALM 30.28R HAVELOCK CLOUDY 47 43 86 CALM 30.27F KENANSVILLE CLOUDY 46 45 93 CALM 30.27F KINSTON CLOUDY 46 45 94 CALM 30.27F NEW BERN CLOUDY 46 41 82 CALM 30.27F RICHLANDS CLOUDY 47 45 93 CALM 30.27F ROCKY MOUNT CLOUDY 47 45 93 CALM 30.27F WASHINGTON CLOUDY 44 40 86 CALM 30.27F WHITEVILLE CLOUDY 49 47 94 CALM 30.25F $$ AMZ130-135-150-152-154-156-158-170-250-252-270-ANZ085-086-088-633-658-670-171000- MARINE OBSERVATIONS STATION/POSITION TIME TEMP WIND PRES WAVE SWELL AIR SEA DIR/SP/G HT/PER HT/PER (UTC) (F) (DEG/KT/KT) (MB) (FT/S) (FT/S) CHESAPEAKE LIGHT NOT AVBL 64 E VA BEACH 0850 54 55 350/ 4/ 6 1024.3 3/ 9 2/ 9 DUCK 0900 44 44 320/ 4/ 6 1024.6 2 E DUCK 0900 44 N/A 2/ 8 OREGON INLET 0900 45 48 310/ 4/ 5 1024.9 13E OREGON INLT NOT AVBL HATTERAS CG 0900 46 52 340/ 5/ 6 1024.6 DIAMOND BUOY 0850 56 73 360/ 10/ 12 1024.8 3/ 8 2/ 8 CAPE LOOKOUT 0900 48 10/ 5/ 5 1024.3 BEAUFORT LAB 0900 47 49 60/ 2/ 4 1023.4 30 SE NEW RVR IN 0908 57 61 50/ 8/ 8 1024.7 30 SE NEW RVR IN 0843 61 N/A 3/ 8 2/11 27 SE WRIGHTSVLE 0908 62 68 70/ 6/ 10 1024.1 5 SE WRIGHTSVLE 0808 52 30/ 8/ 12 1024.7 225 S CAPE HAT 0850 71 72 180/ 14/ 16 1024.9 4/10 3/10 41 SE CHARLESTON 0850 70 70 130/ 4/ 4 1023.5 3/11 3/11 $$

USA.gov is the U.S. government's official web portal to all federal, state and local government web resources and services.